Rhinelander, WI

3:44 PM CDT on March 27, 2017 (GMT -0500)
Rhinelander-Oneida County

Weather History for KRHI - October, 2013

Change the Weather History Date:

Saturday, October 26, 2013

  Actual Average Record
Temperature  
Mean Temperature 41 °F 40 °F  
Max Temperature 47 °F 49 °F 75 °F (1989)
Min Temperature 34 °F 31 °F 15 °F (1962)
Degree Days  
Heating Degree Days 24 25  
Month to date heating degree days 514 532  
Since 1 July heating degree days 966 964  
Cooling Degree Days 0 0  
Month to date cooling degree days 0 0  
Year to date cooling degree days 281 259  
Moisture  
Dew Point 30 °F    
Average Humidity 68    
Maximum Humidity 82    
Minimum Humidity 54    
Precipitation  
Precipitation 0.03 in 0.08 in 1.20 in (1913)
Month to date precipitation 3.81 2.68  
Year to date precipitation 32.77 27.76  
Snow  
Snow T in - 0.50 in (1917)
Month to date snowfall 2.2  
Since 1 July snowfall 2.2  
Since 1 September snowfall 2.2  
Snow Depth 0.00 in    
Sea Level Pressure  
Sea Level Pressure 29.85 in    
Wind  
Wind Speed 8 mph (NW)    
Max Wind Speed 24 mph    
Max Gust Speed 32 mph    
Visibility 9 miles    
Events Rain , Snow    
T = Trace of Precipitation, MM = Missing Value Source: NWS Daily Summary

Daily Weather History Graph

Daily Weather History Graph

Search for Another Location

Airport or City:

Trip Planner

Search our weather history database for the weather conditions in past years. The results will help you decide how hot, cold, wet, or windy it might be!

Date:

Astronomy

Oct. 26, 2013 Rise Set
Actual Time 7:29 AM CDT 5:53 PM CDT
Civil Twilight 6:59 AM CDT 6:23 PM CDT
Nautical Twilight 6:24 AM CDT 6:58 PM CDT
Astronomical Twilight 5:49 AM CDT 7:32 PM CDT
Moon No Moon Rise 1:48 PM CDT (10/26)
Length of Visible Light 11h 24m
Length of Day
10h 23m
Waning Gibbous, 53% of the Moon is Illuminated
Oct 26
Waning Gibbous
Oct 26
Last Quarter
Nov 3
New
Nov 9
First Quarter
Nov 17
Full

Hourly Weather History & Observations

Time (CDT) Temp. Windchill Dew Point Humidity Pressure Visibility Wind Dir Wind Speed Gust Speed Precip Events Conditions
12:53 AM 46.9 °F - 35.1 °F 63% 29.68 in 10.0 mi West 12.7 mph 20.7 mph N/A   Overcast
1:53 AM 46.0 °F 41.0 °F 33.1 °F 61% 29.68 in 10.0 mi WNW 10.4 mph 19.6 mph N/A   Overcast
2:53 AM 46.0 °F 39.9 °F 32.0 °F 58% 29.68 in 10.0 mi WNW 13.8 mph 19.6 mph N/A   Overcast
3:53 AM 42.1 °F 36.1 °F 32.0 °F 67% 29.70 in 10.0 mi WNW 10.4 mph 21.9 mph N/A   Overcast
4:53 AM 41.0 °F 34.7 °F 32.0 °F 70% 29.72 in 10.0 mi WNW 10.4 mph 24.2 mph N/A   Overcast
5:10 AM 41.0 °F 34.7 °F 33.8 °F 76% 29.69 in 10.0 mi WNW 10.4 mph 16.1 mph N/A   Overcast
5:32 AM 41.0 °F 34.7 °F 32.0 °F 70% 29.70 in 10.0 mi WNW 10.4 mph 23.0 mph N/A   Overcast
5:53 AM 39.9 °F 32.5 °F 32.0 °F 73% 29.74 in 10.0 mi WNW 12.7 mph 23.0 mph N/A   Overcast
6:06 AM 39.2 °F 32.0 °F 30.2 °F 70% 29.71 in 10.0 mi WNW 11.5 mph 19.6 mph N/A   Overcast
6:53 AM 37.9 °F 30.9 °F 32.0 °F 79% 29.77 in 10.0 mi NW 10.4 mph - 0.00 in   Overcast
7:05 AM 37.4 °F 29.3 °F 32.0 °F 81% 29.74 in 10.0 mi NW 12.7 mph 23.0 mph 0.00 in Rain Light Rain
7:30 AM 35.6 °F 29.2 °F 32.0 °F 87% 29.75 in 10.0 mi NW 8.1 mph - 0.00 in   Overcast
7:53 AM 36.0 °F 26.7 °F 32.0 °F 86% 29.80 in 10.0 mi WNW 15.0 mph 23.0 mph 0.00 in Rain Light Rain
8:38 AM 35.6 °F 28.6 °F 30.2 °F 81% 29.78 in 10.0 mi NW 9.2 mph 18.4 mph 0.00 in   Mostly Cloudy
8:53 AM 37.0 °F 30.4 °F 30.9 °F 79% 29.83 in 10.0 mi NW 9.2 mph 18.4 mph 0.00 in   Partly Cloudy
9:23 AM 37.4 °F 29.8 °F 30.2 °F 75% 29.80 in 10.0 mi WNW 11.5 mph 17.3 mph N/A   Mostly Cloudy
9:53 AM 37.9 °F 31.5 °F 28.9 °F 70% 29.84 in 10.0 mi WNW 9.2 mph 19.6 mph N/A   Overcast
10:41 AM 35.6 °F 26.6 °F 30.2 °F 81% 29.84 in 1.8 mi NNW 13.8 mph 21.9 mph 0.01 in Snow Light Snow
10:49 AM 33.8 °F 26.4 °F 32.0 °F 93% 29.84 in 2.0 mi NW 9.2 mph 20.7 mph 0.01 in Snow Light Snow
10:50 AM 35.6 °F 29.2 °F 32.0 °F 87% 29.84 in 3.0 mi NW 8.1 mph 19.6 mph 0.01 in Snow Light Snow
10:53 AM 35.1 °F 27.9 °F 33.1 °F 92% 29.88 in 8.0 mi NW 9.2 mph - 0.01 in Snow Light Snow
11:53 AM 39.9 °F 33.9 °F 32.0 °F 73% 29.90 in 10.0 mi NNW 9.2 mph 17.3 mph 0.00 in   Mostly Cloudy
12:53 PM 37.0 °F 31.6 °F 32.0 °F 82% 29.93 in 9.0 mi North 6.9 mph - 0.00 in Rain Light Rain
1:21 PM 39.2 °F 34.2 °F 33.8 °F 81% 29.90 in 10.0 mi North 6.9 mph - 0.00 in   Mostly Cloudy
1:53 PM 39.0 °F 32.8 °F 28.0 °F 65% 29.95 in 9.0 mi NNW 9.2 mph 21.9 mph 0.00 in   Overcast
2:53 PM 39.0 °F 32.8 °F 27.0 °F 62% 29.96 in 10.0 mi NNW 9.2 mph 16.1 mph N/A   Mostly Cloudy
3:53 PM 39.0 °F 33.4 °F 25.0 °F 57% 29.99 in 10.0 mi North 8.1 mph - N/A   Overcast
4:53 PM 39.0 °F 32.8 °F 25.0 °F 57% 30.01 in 10.0 mi NNW 9.2 mph 19.6 mph N/A   Overcast
5:53 PM 37.9 °F 32.7 °F 25.0 °F 60% 30.02 in 10.0 mi NW 6.9 mph - N/A   Overcast
6:53 PM 37.0 °F 34.5 °F 27.0 °F 67% 30.05 in 10.0 mi WNW 3.5 mph - N/A   Overcast
7:53 PM 36.0 °F - 28.0 °F 73% 30.05 in 10.0 mi Calm Calm - N/A   Overcast
8:53 PM 35.1 °F - 28.9 °F 78% 30.04 in 10.0 mi Calm Calm - N/A   Overcast
9:53 PM 35.1 °F 31.0 °F 28.9 °F 78% 30.05 in 10.0 mi WSW 4.6 mph - N/A   Overcast
10:53 PM 34.0 °F 29.8 °F 28.0 °F 79% 30.04 in 10.0 mi West 4.6 mph - N/A   Overcast
11:53 PM 34.0 °F 29.8 °F 28.0 °F 79% 30.02 in 10.0 mi West 4.6 mph - N/A   Overcast